Weather History for KCMA - October, 2011

Change the Weather History Date:

Wednesday, October 12, 2011

  Actual Average Record
Temperature  
Mean Temperature 78 °F 64 °F  
Max Temperature 93 °F 74 °F 95 °F (1983)
Min Temperature 63 °F 53 °F 43 °F (2008)
Degree Days  
Heating Degree Days 0 3  
Month to date heating degree days 9 25  
Since 1 July heating degree days 15 57  
Cooling Degree Days 13 1  
Month to date cooling degree days 35 12  
Year to date cooling degree days 455 295  
Growing Degree Days 27 (Base 50)    
Moisture  
Dew Point 55 °F    
Average Humidity 51    
Maximum Humidity 73    
Minimum Humidity 28    
Precipitation  
Precipitation 0.00 in 0.02 in 0.11 in (2007)
Month to date precipitation 0.93 0.15  
Year to date precipitation 11.20 11.37  
Since 1 July precipitation 0.97 0.39  
Sea Level Pressure  
Sea Level Pressure 29.85 in    
Wind  
Wind Speed 5 mph (West)    
Max Wind Speed 12 mph    
Max Gust Speed 14 mph    
Visibility 10 miles    
Events      
T = Trace of Precipitation, MM = Missing Value Source: NWS Daily Summary

Daily Weather History Graph

Daily Weather History Graph

Search for Another Location

Airport or City:

Trip Planner

Search our weather history database for the weather conditions in past years. The results will help you decide how hot, cold, wet, or windy it might be!

Date:

Astronomy

Oct. 12, 2011 Rise Set
Actual Time 6:59 AM PDT 6:26 PM PDT
Civil Twilight 6:33 AM PDT 6:51 PM PDT
Nautical Twilight 6:04 AM PDT 7:20 PM PDT
Astronomical Twilight 5:35 AM PDT 7:49 PM PDT
Moon 6:36 PM PDT (10/12) 7:34 AM PDT (10/12)
Length of Visible Light 12h 17m
Length of Day
11h 27m
Full, 100% of the Moon is Illuminated
Oct 12
Full
Oct 19
Last Quarter
Oct 26
New
Nov 2
First Quarter
Nov 10
Full

Hourly Weather History & Observations

Time (PDT) Temp. Heat Index Dew Point Humidity Pressure Visibility Wind Dir Wind Speed Gust Speed Precip Events Conditions
1:55 AM 66.0 °F - 53.1 °F 63% 29.87 in 10.0 mi NNW 5.8 mph - N/A   Clear
2:55 AM 71.1 °F - 53.1 °F 53% 29.86 in 10.0 mi NNE 10.4 mph - N/A   Clear
3:55 AM 73.0 °F - 53.1 °F 49% 29.85 in 10.0 mi NE 4.6 mph - N/A   Clear
4:55 AM 66.0 °F - 53.1 °F 63% 29.84 in 10.0 mi North 6.9 mph - N/A   Clear
5:55 AM 64.9 °F - 53.1 °F 65% 29.86 in 10.0 mi WNW 4.6 mph - N/A   Clear
6:55 AM 66.0 °F - 53.1 °F 63% 29.86 in 10.0 mi Calm Calm - N/A   Clear
8:55 AM 82.0 °F 81.6 °F 55.9 °F 41% 29.90 in 10.0 mi Calm Calm - N/A   Clear
9:55 AM 87.1 °F 85.7 °F 55.9 °F 35% 29.89 in 10.0 mi Calm Calm - N/A   Clear
11:55 AM 84.0 °F 84.4 °F 61.0 °F 46% 29.87 in 10.0 mi SW 9.2 mph - N/A   Clear
12:55 PM 90.0 °F 90.0 °F 61.0 °F 38% 29.86 in 10.0 mi SW 6.9 mph - N/A   Clear
2:55 PM 90.0 °F 87.7 °F 54.0 °F 29% 29.83 in 10.0 mi WSW 8.1 mph - N/A   Clear
3:55 PM 89.1 °F 86.9 °F 54.0 °F 30% 29.83 in 10.0 mi WSW 8.1 mph - N/A   Clear
4:55 PM 86.0 °F 84.2 °F 54.0 °F 33% 29.83 in 10.0 mi SW 5.8 mph - N/A   Clear
5:55 PM 82.9 °F 81.9 °F 54.0 °F 37% 29.83 in 10.0 mi SW 4.6 mph - N/A   Clear
6:55 PM 80.1 °F 80.0 °F 54.0 °F 40% 29.83 in 10.0 mi SE 3.5 mph - N/A   Clear
7:55 PM 75.9 °F - 54.0 °F 46% 29.83 in 10.0 mi NE 4.6 mph - N/A   Clear
8:55 PM 72.0 °F - 55.0 °F 55% 29.84 in 10.0 mi Calm Calm - N/A   Clear
9:55 PM 75.0 °F - 55.0 °F 50% 29.85 in 10.0 mi East 4.6 mph - N/A   Clear
10:55 PM 71.1 °F - 54.0 °F 55% 29.86 in 10.0 mi Calm Calm - N/A   Clear
11:55 PM 70.0 °F - 54.0 °F 57% 29.86 in 10.0 mi Variable 3.5 mph - N/A   Clear